| time (UTC) | temp F | wind direction | speed MPH | gust MPH | rain 1hr in | rain 24hr in | rain mn in | humidity % | barometer mb |
| 20260506050516 | 59 | 0.0 | 0.0 | 0.10 | 0.26 | 0.10 | 90 | 1007.6 | |
| 20260506044516 | 59 | 205 | 0.0 | 1.0 | 0.06 | 0.21 | 0.05 | 90 | 1007.9 |
| 20260506043517 | 59 | 0.0 | 0.0 | 0.07 | 0.20 | 0.04 | 90 | 1007.8 | |
| 20260506042515 | 59 | 91 | 0.0 | 1.0 | 0.06 | 0.18 | 0.02 | 90 | 1007.9 |
| 20260506041535 | 59 | 0.0 | 1.0 | 0.05 | 0.17 | 0.01 | 90 | 1008.0 | |
| 20260506040536 | 59 | 0.0 | 0.0 | 0.05 | 0.16 | 0.00 | 90 | 1007.9 | |
| 20260506035517 | 59 | 0.0 | 0.0 | 0.05 | 0.16 | 0.16 | 90 | 1007.9 | |
| 20260506034516 | 59 | 91 | 0.0 | 2.0 | 0.05 | 0.15 | 0.15 | 90 | 1008.1 |
| 20260506033516 | 59 | 0.0 | 0.0 | 0.03 | 0.13 | 0.13 | 90 | 1008.1 | |
| 20260506032516 | 59 | 0.0 | 0.0 | 0.03 | 0.12 | 0.12 | 90 | 1008.1 | |
| 20260506031517 | 59 | 0.0 | 0.0 | 0.03 | 0.12 | 0.12 | 90 | 1008.2 | |
| 20260506030517 | 59 | 125 | 0.0 | 2.0 | 0.02 | 0.11 | 0.11 | 90 | 1008.2 |
| 20260506025537 | 59 | 0.0 | 0.0 | 0.02 | 0.11 | 0.11 | 89 | 1008.2 | |
| 20260506024517 | 60 | 114 | 0.0 | 1.0 | 0.02 | 0.10 | 0.10 | 89 | 1008.3 |
| 20260506023517 | 60 | 114 | 0.0 | 1.0 | 0.02 | 0.10 | 0.10 | 89 | 1008.5 |
| 20260506022516 | 60 | 0.0 | 0.0 | 0.01 | 0.09 | 0.09 | 89 | 1008.5 | |
| 20260506021517 | 60 | 0.0 | 0.0 | 0.01 | 0.09 | 0.09 | 89 | 1008.3 | |
| 20260506020516 | 60 | 0.0 | 0.0 | 0.01 | 0.09 | 0.09 | 89 | 1008.2 | |
| 20260506015516 | 59 | 0.0 | 0.0 | 0.01 | 0.09 | 0.09 | 89 | 1008.1 | |
| 20260506014537 | 60 | 114 | 0.0 | 1.0 | 0.01 | 0.08 | 0.08 | 89 | 1007.9 |
| 20260506013516 | 60 | 0.0 | 1.0 | 0.01 | 0.08 | 0.08 | 89 | 1007.7 | |
| 20260506012517 | 60 | 0.0 | 0.0 | 0.03 | 0.08 | 0.08 | 89 | 1007.8 | |
| 20260506011557 | 60 | 0.0 | 1.0 | 0.05 | 0.08 | 0.08 | 89 | 1007.7 | |
| 20260506010517 | 60 | 0.0 | 0.0 | 0.05 | 0.08 | 0.08 | 88 | 1007.8 | |
| 20260506005516 | 60 | 0.0 | 1.0 | 0.05 | 0.08 | 0.08 | 88 | 1007.9 | |
| 20260506004516 | 60 | 245 | 0.0 | 3.0 | 0.06 | 0.07 | 0.07 | 88 | 1008.2 |
| 20260506003537 | 60 | 170 | 1.0 | 3.0 | 0.07 | 0.07 | 0.07 | 88 | 1008.1 |
| 20260506002517 | 60 | 283 | 0.0 | 1.0 | 0.05 | 0.05 | 0.05 | 87 | 1007.8 |
| 20260506001516 | 60 | 0.0 | 3.0 | 0.03 | 0.03 | 0.03 | 87 | 1007.8 | |
| 20260506000537 | 61 | 270 | 1.0 | 6.0 | 0.03 | 0.03 | 0.03 | 86 | 1007.8 |
| 20260505235516 | 62 | 300 | 3.0 | 8.0 | 0.03 | 0.03 | 0.03 | 83 | 1007.9 |
| 20260505234517 | 65 | 297 | 5.0 | 11.0 | 0.01 | 0.01 | 0.01 | 75 | 1008.1 |
| 20260505233516 | 70 | 299 | 6.0 | 14.0 | 0.00 | 0.00 | 0.00 | 60 | 1007.8 |
| 20260505232516 | 70 | 239 | 2.0 | 6.0 | 0.00 | 0.00 | 0.00 | 59 | 1007.2 |
| 20260505231517 | 71 | 181 | 1.0 | 5.0 | 0.00 | 0.00 | 0.00 | 58 | 1007.2 |
| 20260505230516 | 71 | 191 | 3.0 | 8.0 | 0.00 | 0.00 | 0.00 | 58 | 1007.3 |
| 20260505225516 | 71 | 195 | 1.0 | 6.0 | 0.00 | 0.00 | 0.00 | 59 | 1007.2 |
| 20260505224537 | 71 | 170 | 1.0 | 7.0 | 0.00 | 0.00 | 0.00 | 58 | 1007.4 |
| 20260505223537 | 71 | 237 | 1.0 | 8.0 | 0.00 | 0.00 | 0.00 | 58 | 1007.4 |
| 20260505222516 | 71 | 213 | 1.0 | 6.0 | 0.00 | 0.00 | 0.00 | 58 | 1007.3 |
| 20260505221518 | 71 | 210 | 1.0 | 6.0 | 0.00 | 0.00 | 0.00 | 59 | 1007.4 |
| 20260505220516 | 71 | 226 | 2.0 | 6.0 | 0.00 | 0.00 | 0.00 | 58 | 1007.4 |
| 20260505215517 | 71 | 129 | 1.0 | 6.0 | 0.00 | 0.00 | 0.00 | 58 | 1007.4 |
| 20260505214516 | 71 | 247 | 3.0 | 7.0 | 0.00 | 0.00 | 0.00 | 58 | 1007.5 |
| 20260505213517 | 71 | 263 | 2.0 | 8.0 | 0.00 | 0.00 | 0.00 | 58 | 1007.5 |
| 20260505212516 | 71 | 246 | 3.0 | 11.0 | 0.00 | 0.00 | 0.00 | 58 | 1007.5 |
| 20260505211516 | 71 | 228 | 2.0 | 8.0 | 0.00 | 0.00 | 0.00 | 58 | 1007.6 |
| 20260505210516 | 71 | 187 | 4.0 | 13.0 | 0.00 | 0.00 | 0.00 | 58 | 1007.6 |
| 20260505205516 | 71 | 217 | 4.0 | 9.0 | 0.00 | 0.00 | 0.00 | 58 | 1007.8 |
| 20260505204517 | 71 | 234 | 3.0 | 12.0 | 0.00 | 0.00 | 0.00 | 58 | 1007.9 |
| 20260505203516 | 71 | 206 | 3.0 | 11.0 | 0.00 | 0.00 | 0.00 | 58 | 1008.0 |
| 20260505202516 | 71 | 243 | 2.0 | 7.0 | 0.00 | 0.00 | 0.00 | 59 | 1008.0 |
| 20260505201516 | 70 | 144 | 3.0 | 11.0 | 0.00 | 0.00 | 0.00 | 60 | 1008.0 |
| 20260505200516 | 70 | 268 | 3.0 | 8.0 | 0.00 | 0.00 | 0.00 | 60 | 1008.0 |
| 20260505195557 | 70 | 215 | 3.0 | 9.0 | 0.00 | 0.00 | 0.00 | 61 | 1008.1 |
| 20260505194516 | 69 | 257 | 2.0 | 8.0 | 0.00 | 0.00 | 0.00 | 63 | 1008.3 |
| 20260505193517 | 70 | 249 | 2.0 | 6.0 | 0.00 | 0.00 | 0.00 | 62 | 1008.2 |
| 20260505192516 | 71 | 218 | 2.0 | 9.0 | 0.00 | 0.00 | 0.00 | 60 | 1008.2 |
| 20260505191516 | 71 | 207 | 1.0 | 8.0 | 0.00 | 0.00 | 0.00 | 59 | 1008.1 |
| 20260505190516 | 71 | 222 | 2.0 | 6.0 | 0.00 | 0.00 | 0.00 | 57 | 1008.3 |
| 20260505185536 | 71 | 243 | 2.0 | 9.0 | 0.00 | 0.00 | 0.00 | 56 | 1008.3 |
| 20260505184516 | 72 | 250 | 2.0 | 5.0 | 0.00 | 0.00 | 0.00 | 55 | 1008.5 |
| 20260505183516 | 72 | 284 | 3.0 | 11.0 | 0.00 | 0.00 | 0.00 | 55 | 1008.6 |
| 20260505182516 | 72 | 252 | 2.0 | 10.0 | 0.00 | 0.00 | 0.00 | 55 | 1008.7 |
| 20260505181536 | 72 | 249 | 3.0 | 11.0 | 0.00 | 0.00 | 0.00 | 56 | 1008.6 |
| 20260505180517 | 72 | 223 | 3.0 | 10.0 | 0.00 | 0.00 | 0.00 | 54 | 1008.6 |
| 20260505175516 | 73 | 235 | 4.0 | 12.0 | 0.00 | 0.00 | 0.00 | 53 | 1008.7 |
| 20260505174537 | 73 | 235 | 5.0 | 13.0 | 0.00 | 0.00 | 0.00 | 54 | 1008.7 |
| 20260505173517 | 73 | 242 | 6.0 | 16.0 | 0.00 | 0.00 | 0.00 | 54 | 1008.9 |
| 20260505172516 | 72 | 276 | 6.0 | 17.0 | 0.00 | 0.00 | 0.00 | 55 | 1009.0 |
| 20260505171516 | 72 | 276 | 4.0 | 11.0 | 0.00 | 0.00 | 0.00 | 57 | 1008.7 |
| 20260505170516 | 72 | 232 | 4.0 | 9.0 | 0.00 | 0.00 | 0.00 | 57 | 1008.9 |
| 20260505165516 | 71 | 255 | 3.0 | 12.0 | 0.00 | 0.00 | 0.00 | 57 | 1008.9 |
| 20260505164517 | 71 | 202 | 2.0 | 9.0 | 0.00 | 0.00 | 0.00 | 58 | 1008.9 |
| 20260505163516 | 71 | 235 | 4.0 | 12.0 | 0.00 | 0.00 | 0.00 | 58 | 1008.9 |
| 20260505162516 | 70 | 168 | 5.0 | 16.0 | 0.00 | 0.00 | 0.00 | 59 | 1008.9 |
| 20260505161516 | 69 | 245 | 5.0 | 13.0 | 0.00 | 0.00 | 0.00 | 59 | 1008.6 |
| 20260505160517 | 70 | 231 | 5.0 | 12.0 | 0.00 | 0.00 | 0.00 | 58 | 1008.6 |
| 20260505152516 | 70 | 261 | 4.0 | 10.0 | 0.00 | 0.00 | 0.00 | 59 | 1008.6 |
| 20260505151516 | 70 | 249 | 4.0 | 13.0 | 0.00 | 0.00 | 0.00 | 60 | 1008.4 |
| 20260505150516 | 69 | 225 | 3.0 | 12.0 | 0.00 | 0.00 | 0.00 | 61 | 1008.4 |
| 20260505140517 | 64 | 224 | 2.0 | 5.0 | 0.00 | 0.00 | 0.00 | 71 | 1008.5 |
| 20260505124516 | 65 | 126 | 2.0 | 7.0 | 0.00 | 0.00 | 0.00 | 65 | 1008.0 |
| 20260505123516 | 65 | 211 | 2.0 | 12.0 | 0.00 | 0.00 | 0.00 | 66 | 1007.8 |
| 20260505122516 | 65 | 229 | 1.0 | 9.0 | 0.00 | 0.00 | 0.00 | 66 | 1007.8 |
| 20260505121516 | 64 | 219 | 3.0 | 10.0 | 0.00 | 0.00 | 0.00 | 66 | 1007.8 |
| 20260505120516 | 64 | 227 | 2.0 | 6.0 | 0.00 | 0.00 | 0.00 | 66 | 1007.8 |
| 20260505115516 | 64 | 208 | 2.0 | 6.0 | 0.00 | 0.00 | 0.00 | 66 | 1008.0 |
| 20260505114536 | 64 | 165 | 2.0 | 5.0 | 0.00 | 0.00 | 0.00 | 67 | 1008.0 |
| 20260505113516 | 64 | 184 | 1.0 | 7.0 | 0.00 | 0.00 | 0.00 | 67 | 1008.0 |
| 20260505112516 | 64 | 179 | 1.0 | 6.0 | 0.00 | 0.00 | 0.00 | 67 | 1007.9 |
| 20260505111516 | 63 | 183 | 1.0 | 5.0 | 0.00 | 0.00 | 0.00 | 68 | 1007.9 |
| 20260505110516 | 63 | 74 | 1.0 | 6.0 | 0.00 | 0.00 | 0.00 | 68 | 1007.9 |
| 20260505101516 | 64 | 224 | 2.0 | 7.0 | 0.00 | 0.00 | 0.00 | 66 | 1007.6 |
| 20260505100516 | 64 | 201 | 2.0 | 7.0 | 0.00 | 0.00 | 0.00 | 66 | 1007.5 |
| 20260505095536 | 64 | 153 | 2.0 | 8.0 | 0.00 | 0.00 | 0.00 | 65 | 1007.4 |
| 20260505094516 | 65 | 222 | 2.0 | 8.0 | 0.00 | 0.00 | 0.00 | 65 | 1007.3 |
| 20260505093516 | 65 | 210 | 2.0 | 7.0 | 0.00 | 0.00 | 0.00 | 65 | 1007.2 |
| 20260505092556 | 65 | 178 | 1.0 | 4.0 | 0.00 | 0.00 | 0.00 | 64 | 1007.2 |
| 20260505091516 | 66 | 148 | 1.0 | 8.0 | 0.00 | 0.00 | 0.00 | 63 | 1007.0 |
| 20260505090516 | 66 | 234 | 3.0 | 8.0 | 0.00 | 0.00 | 0.00 | 63 | 1006.9 |
| 20260505085516 | 66 | 190 | 3.0 | 9.0 | 0.00 | 0.00 | 0.00 | 63 | 1006.9 |
| 20260505084516 | 66 | 224 | 3.0 | 8.0 | 0.00 | 0.00 | 0.00 | 63 | 1006.9 |
| 20260505083516 | 66 | 218 | 2.0 | 7.0 | 0.00 | 0.00 | 0.00 | 63 | 1006.8 |
| 20260505082516 | 66 | 201 | 2.0 | 7.0 | 0.00 | 0.00 | 0.00 | 63 | 1006.8 |
| 20260505081515 | 66 | 221 | 3.0 | 11.0 | 0.00 | 0.00 | 0.00 | 63 | 1006.7 |
| 20260505080516 | 65 | 200 | 2.0 | 4.0 | 0.00 | 0.00 | 0.00 | 64 | 1006.6 |
| 20260505075516 | 65 | 184 | 3.0 | 6.0 | 0.00 | 0.00 | 0.00 | 64 | 1006.5 |
| 20260505074516 | 65 | 242 | 2.0 | 5.0 | 0.00 | 0.00 | 0.00 | 65 | 1006.5 |
| 20260505073515 | 65 | 157 | 2.0 | 7.0 | 0.00 | 0.00 | 0.00 | 65 | 1006.4 |
| 20260505072516 | 65 | 171 | 2.0 | 6.0 | 0.00 | 0.00 | 0.00 | 65 | 1006.3 |
| 20260505071515 | 65 | 194 | 2.0 | 9.0 | 0.00 | 0.00 | 0.00 | 65 | 1006.2 |
| 20260505070516 | 65 | 223 | 1.0 | 4.0 | 0.00 | 0.00 | 0.00 | 65 | 1006.3 |
| 20260505065515 | 65 | 158 | 2.0 | 6.0 | 0.00 | 0.00 | 0.00 | 65 | 1006.2 |
| 20260505064516 | 65 | 216 | 2.0 | 5.0 | 0.00 | 0.00 | 0.00 | 64 | 1006.3 |
| 20260505063517 | 66 | 106 | 2.0 | 8.0 | 0.00 | 0.00 | 0.00 | 64 | 1006.4 |
| 20260505062516 | 66 | 207 | 2.0 | 7.0 | 0.00 | 0.00 | 0.00 | 64 | 1006.4 |
| 20260505061515 | 66 | 180 | 2.0 | 7.0 | 0.00 | 0.00 | 0.00 | 64 | 1006.5 |
| 20260505060515 | 66 | 244 | 2.0 | 6.0 | 0.00 | 0.00 | 0.00 | 64 | 1006.6 |
| 20260505055516 | 66 | 198 | 1.0 | 6.0 | 0.00 | 0.00 | 0.00 | 64 | 1006.7 |
| 20260505054515 | 66 | 191 | 2.0 | 7.0 | 0.00 | 0.00 | 0.00 | 63 | 1006.9 |
| 20260505053515 | 67 | 212 | 2.0 | 8.0 | 0.00 | 0.00 | 0.00 | 63 | 1007.0 |